Date String (YYYY-MM-DD hh:mm:ss) UTC,Instrument flags,Ambient pressure (hPa),Sample flow (lpm),Bypass flow (lpm),Sample temperature (°C),Ambient temperature (°C),ASC tube jacket temperature (°C),LED temperature (°C),Box temperature (°C),Sample RH (%),Span deviation,Mass concentration (μg/m³),Mass concentration (μg/m³),Mass concentration (μg/m³)
DateTimeUTC,F1_M11,P_M11,Q1_M11,Q2_M11,T1_M11,T2_M11,T3_M11,T4_M11,T5_M11,U1_M11,ZSPAN_M11,X0_M11,X2_M11,X1_M11
2022-03-31 15:00:00,,0819.0,5.00,0.00,23.1,22.3,00.0,32.0,25.0,09.4,0000.0,0006.92,0002.99,0001.45
2022-03-31 15:01:00,,0819.0,5.00,0.00,23.2,22.3,00.0,32.0,25.0,09.6,0000.0,0007.07,0003.02,0001.44
2022-03-31 15:02:00,,0818.9,4.99,0.00,23.2,22.3,00.0,32.1,25.0,09.0,0000.0,0007.08,0003.06,0001.45
2022-03-31 15:03:00,,0819.0,5.01,0.00,23.2,22.3,00.0,32.1,25.0,09.0,0000.0,0007.12,0003.05,0001.43
2022-03-31 15:04:00,,0818.9,5.00,0.00,23.2,22.3,00.0,32.1,25.0,09.2,0000.0,0007.10,0003.01,0001.42
2022-03-31 15:05:00,,0819.0,5.01,0.00,23.2,22.3,00.0,32.1,25.0,09.3,0000.0,0006.93,0002.94,0001.42
2022-03-31 15:06:00,,0819.0,5.00,0.00,23.2,22.4,00.0,32.1,25.0,09.5,0000.0,0006.84,0002.91,0001.42
2022-03-31 15:07:00,,0818.9,5.00,0.00,23.2,22.4,00.0,32.1,25.0,10.1,0000.0,0006.75,0002.87,0001.42
2022-03-31 15:08:00,,0819.0,5.00,0.00,23.2,22.4,00.0,32.1,25.0,10.6,0000.0,0006.73,0002.88,0001.43
2022-03-31 15:09:00,,0819.0,5.00,0.00,23.2,22.4,00.0,32.1,25.0,11.3,0000.0,0006.89,0002.90,0001.42
2022-03-31 15:10:00,,0819.0,4.99,0.00,23.2,22.4,00.0,32.1,25.0,11.4,0000.0,0006.87,0002.88,0001.41
2022-03-31 15:11:00,,0818.9,5.00,0.00,23.3,22.4,00.0,32.1,25.0,11.0,0000.0,0006.93,0002.94,0001.40
2022-03-31 15:12:00,,0818.9,5.00,0.00,23.3,22.4,00.0,32.1,25.1,11.0,0000.0,0007.37,0002.93,0001.40
2022-03-31 15:13:00,,0818.9,5.00,0.00,23.3,22.4,00.0,32.1,25.1,10.8,0000.0,0007.41,0002.92,0001.39
2022-03-31 15:14:00,,0818.9,5.00,0.00,23.3,22.4,00.0,32.2,25.1,10.0,0000.0,0007.25,0002.83,0001.38
2022-03-31 15:15:00,,0818.9,5.00,0.00,23.3,22.4,00.0,32.2,25.1,10.1,0000.0,0007.40,0002.88,0001.37
2022-03-31 15:16:00,,0819.0,4.99,0.00,23.3,22.5,00.0,32.2,25.1,09.7,0000.0,0007.57,0002.98,0001.38
2022-03-31 15:17:00,,0818.9,5.00,0.00,23.3,22.5,00.0,32.2,25.1,09.8,0000.0,0007.56,0002.96,0001.38
2022-03-31 15:18:00,,0818.9,5.00,0.00,23.3,22.5,00.0,32.2,25.1,09.7,0000.0,0007.50,0002.97,0001.38
2022-03-31 15:19:00,,0819.0,5.00,0.00,23.3,22.5,00.0,32.2,25.1,10.1,0000.0,0007.60,0003.02,0001.38
2022-03-31 15:20:00,,0819.0,5.00,0.00,23.3,22.5,00.0,32.2,25.1,10.8,0000.0,0007.62,0003.02,0001.40
2022-03-31 15:21:00,,0819.0,5.00,0.00,23.3,22.5,00.0,32.2,25.1,11.2,0000.0,0007.59,0003.07,0001.42
2022-03-31 15:22:00,,0819.0,5.00,0.00,23.3,22.5,00.0,32.2,25.1,11.4,0000.0,0007.53,0003.02,0001.44
2022-03-31 15:23:00,,0818.9,5.00,0.00,23.3,22.5,00.0,32.2,25.1,10.9,0000.0,0007.11,0003.02,0001.46
2022-03-31 15:24:00,,0818.9,5.00,0.00,23.4,22.5,00.0,32.2,25.1,10.7,0000.0,0006.73,0002.98,0001.48
2022-03-31 15:25:00,,0818.9,5.02,0.00,23.4,22.5,00.0,32.3,25.2,10.0,0000.0,0006.70,0003.02,0001.51
2022-03-31 15:26:00,,0818.9,4.99,0.00,23.4,22.5,00.0,32.3,25.1,11.7,0000.0,0006.53,0003.02,0001.52
2022-03-31 15:27:00,,0818.9,5.00,0.00,23.4,22.5,00.0,32.3,25.2,12.4,0000.0,0006.33,0002.96,0001.52
2022-03-31 15:28:00,,0819.0,5.00,0.00,23.4,22.5,00.0,32.3,25.2,10.7,0000.0,0006.34,0002.98,0001.54
2022-03-31 15:29:00,,0819.0,5.00,0.00,23.4,22.5,00.0,32.3,25.2,09.8,0000.0,0006.12,0002.91,0001.54
2022-03-31 15:30:00,,0819.1,5.00,0.00,23.4,22.5,00.0,32.3,25.2,09.6,0000.0,0006.00,0002.90,0001.53
2022-03-31 15:31:00,,0819.0,4.99,0.00,23.4,22.6,00.0,32.3,25.2,09.8,0000.0,0005.84,0002.88,0001.51
2022-03-31 15:32:00,,0819.0,4.99,0.00,23.4,22.6,00.0,32.3,25.2,09.3,0000.0,0005.82,0002.81,0001.49
2022-03-31 15:33:00,,0819.1,5.01,0.00,23.4,22.6,00.0,32.3,25.2,09.2,0000.0,0005.76,0002.75,0001.46
2022-03-31 15:34:00,,0819.1,5.01,0.00,23.4,22.6,00.0,32.3,25.2,08.7,0000.0,0005.28,0002.62,0001.42
2022-03-31 15:35:00,,0819.0,5.00,0.00,23.4,22.6,00.0,32.3,25.3,08.3,0000.0,0004.97,0002.55,0001.40
2022-03-31 15:36:00,,0819.1,4.99,0.00,23.4,22.6,00.0,32.3,25.3,09.5,0000.0,0004.93,0002.52,0001.38
2022-03-31 15:37:00,,0819.1,5.00,0.00,23.4,22.6,00.0,32.3,25.3,09.6,0000.0,0004.86,0002.45,0001.36
2022-03-31 15:38:00,,0819.0,5.00,0.00,23.5,22.6,00.0,32.4,25.3,09.2,0000.0,0004.79,0002.40,0001.34
2022-03-31 15:39:00,,0819.1,5.00,0.00,23.5,22.6,00.0,32.4,25.3,09.7,0000.0,0004.75,0002.37,0001.30
2022-03-31 15:40:00,,0819.1,5.01,0.00,23.5,22.6,00.0,32.4,25.3,09.5,0000.0,0004.96,0002.43,0001.29
2022-03-31 15:41:00,,0819.1,5.00,0.00,23.5,22.6,00.0,32.4,25.3,09.3,0000.0,0004.81,0002.35,0001.27
2022-03-31 15:42:00,,0819.1,5.01,0.00,23.5,22.6,00.0,32.4,25.3,08.9,0000.0,0004.88,0002.35,0001.26
2022-03-31 15:43:00,,0819.1,4.99,0.00,23.5,22.7,00.0,32.4,25.3,08.4,0000.0,0004.85,0002.36,0001.26
2022-03-31 15:44:00,,0819.1,4.99,0.00,23.5,22.7,00.0,32.4,25.3,09.0,0000.0,0004.85,0002.42,0001.25
2022-03-31 15:45:00,,0819.0,5.00,0.00,23.5,22.7,00.0,32.4,25.3,09.5,0000.0,0005.11,0002.54,0001.27
2022-03-31 15:46:00,,0819.1,5.01,0.00,23.5,22.7,00.0,32.4,25.4,09.6,0000.0,0005.29,0002.56,0001.28
2022-03-31 15:47:00,,0819.0,5.00,0.00,23.6,22.7,00.0,32.4,25.4,09.0,0000.0,0005.50,0002.53,0001.26
2022-03-31 15:48:00,,0819.0,5.00,0.00,23.6,22.7,00.0,32.4,25.4,08.7,0000.0,0005.70,0002.55,0001.27
2022-03-31 15:49:00,,0819.0,4.99,0.00,23.6,22.7,00.0,32.4,25.4,08.4,0000.0,0006.02,0002.62,0001.30
2022-03-31 15:50:00,,0819.0,5.00,0.00,23.6,22.8,00.0,32.5,25.4,08.6,0000.0,0006.31,0002.71,0001.31
2022-03-31 15:51:00,,0819.0,5.00,0.00,23.6,22.8,00.0,32.5,25.4,08.8,0000.0,0006.29,0002.71,0001.32
2022-03-31 15:52:00,,0818.9,5.00,0.00,23.6,22.8,00.0,32.5,25.4,09.3,0000.0,0006.82,0002.79,0001.33
2022-03-31 15:53:00,,0818.9,5.01,0.00,23.6,22.8,00.0,32.5,25.4,09.7,0000.0,0006.79,0002.74,0001.33
2022-03-31 15:54:00,,0818.9,5.00,0.00,23.6,22.8,00.0,32.5,25.5,09.3,0000.0,0006.80,0002.72,0001.33
2022-03-31 15:55:00,,0818.9,5.00,0.00,23.6,22.8,00.0,32.5,25.5,09.2,0000.0,0006.82,0002.69,0001.35
2022-03-31 15:56:00,,0818.9,4.99,0.00,23.7,22.8,00.0,32.5,25.5,09.6,0000.0,0006.92,0002.70,0001.35
2022-03-31 15:57:00,,0819.0,5.00,0.00,23.7,22.8,00.0,32.5,25.5,08.8,0000.0,0006.98,0002.78,0001.36
2022-03-31 15:58:00,,0819.0,5.00,0.00,23.7,22.9,00.0,32.5,25.5,08.8,0000.0,0006.75,0002.80,0001.37
2022-03-31 15:59:00,,0819.0,5.00,0.00,23.7,22.9,00.0,32.6,25.5,08.9,0000.0,0006.58,0002.78,0001.36
